sat.trackr.live / text

‹ back to catalog

STARLINK-4055

NORAD 53161 · 2022-083AF

PAYLOAD ACTIVE UNKNOWN

§ Identity

Operator
Country
US
Launch date
2022-07-17
Launch site
AFETR
Launch vehicle
Mass (kg)
RCS (m²)

Purposes: comms

External: N2YO · Heavens-Above · Gunter

§ Orbital elements

Epoch: 2026-09-20T00:06:27.923040Z

Period
93.79 min
Inclination
53.1601°
Eccentricity
0.0001444
Mean motion
15.35411236 rev/d
Perigee alt
458.7 km
Apogee alt
460.7 km
Semi-major
6,837.8 km
B*
-2.0921e-4
RAAN
358.7907°
Arg perigee
92.7258°
Mean anomaly
267.3910°
Rev number
23,087

§ Raw data

STARLINK-40551 53161U 22083AF  26263.00448985 -.00007674  00000+0 -20921-3 0  99902 53161  53.1601 358.7907 0001444  92.7258 267.3910 15.35411236230878

JSON: /api/v1/satellites/53161 · /tle

For live sub-satellite position, see the globe view (requires WebGL).

§ Visibility from observer

Set your observer location to see the next 7 days of passes ≥ 10°. The values pass through the URL so the page stays shareable.

No JS? Fill the form by hand. The geolocation button needs JavaScript.